Location: Valencia
(39.4696°N, 0.3770°W)
Time: 04:12:00
(UTC+02:00)

ISS - Visible Passes

Search period start: 28 August 2016 00:00
Search period end: 07 September 2016 00:00
Orbit: 402 x 406 km, 51.6° (Epoch: 27 August)

Date Brightness Start Highest point End Pass type
(mag) Time Alt. Az. Time Alt. Az. Time Alt. Az.
04 Sep -2.6 06:56:00 10° SW 06:59:11 50° SE 07:02:23 10° ENE visible
05 Sep -1.4 06:05:16 17° S 06:06:50 25° SE 06:09:34 10° ENE visible
06 Sep -0.4 05:15:15 12° ESE 05:15:15 12° ESE 05:16:04 10° E visible
06 Sep -3.2 06:47:55 14° WSW 06:50:38 63° NW 06:53:54 10° NE visible
